Date String (YYYY-MM-DD hh:mm:ss) UTC,Instrument flags,Ambient pressure (hPa),Sample flow (lpm),Bypass flow (lpm),Sample temperature (°C),Ambient temperature (°C),ASC tube jacket temperature (°C),LED temperature (°C),Box temperature (°C),Sample RH (%),Span deviation,Mass concentration (μg/m³),Mass concentration (μg/m³),Mass concentration (μg/m³)
DateTimeUTC,F1_M11,P_M11,Q1_M11,Q2_M11,T1_M11,T2_M11,T3_M11,T4_M11,T5_M11,U1_M11,ZSPAN_M11,X0_M11,X2_M11,X1_M11
2022-11-26 19:00:00,,0820.5,4.99,0.00,26.5,25.5,00.0,35.3,28.4,10.1,0000.0,0004.22,0001.87,0001.37
2022-11-26 19:01:00,,0820.5,5.02,0.00,26.5,25.5,00.0,35.3,28.4,10.4,0000.0,0004.23,0001.81,0001.29
2022-11-26 19:02:00,,0820.4,4.98,0.00,26.5,25.5,00.0,35.3,28.4,10.1,0000.0,0003.87,0001.62,0001.21
2022-11-26 19:03:00,,0820.4,5.01,0.00,26.6,25.6,00.0,35.3,28.4,10.3,0000.0,0003.69,0001.54,0001.14
2022-11-26 19:04:00,,0820.4,4.99,0.00,26.6,25.6,00.0,35.3,28.4,10.3,0000.0,0003.05,0001.55,0001.14
2022-11-26 19:05:00,,0820.4,5.00,0.00,26.6,25.6,00.0,35.4,28.5,10.4,0000.0,0002.83,0001.55,0001.14
2022-11-26 19:06:00,,0820.4,5.01,0.00,26.6,25.6,00.0,35.4,28.5,10.4,0000.0,0003.50,0001.57,0001.17
2022-11-26 19:07:00,,0820.3,4.99,0.00,26.6,25.6,00.0,35.4,28.5,10.5,0000.0,0003.89,0001.59,0001.19
2022-11-26 19:08:00,,0820.3,5.01,0.00,26.6,25.6,00.0,35.4,28.5,10.5,0000.0,0003.96,0001.63,0001.20
2022-11-26 19:09:00,,0820.2,4.99,0.00,26.6,25.6,00.0,35.4,28.5,10.4,0000.0,0003.85,0001.58,0001.20
2022-11-26 19:10:00,,0820.3,5.02,0.00,26.7,25.6,00.0,35.4,28.5,10.7,0000.0,0003.75,0001.55,0001.21
2022-11-26 19:11:00,,0820.2,4.99,0.00,26.7,25.7,00.0,35.4,28.5,10.7,0000.0,0003.74,0001.60,0001.27
2022-11-26 19:12:00,,0820.2,5.00,0.00,26.7,25.6,00.0,35.5,28.6,10.6,0000.0,0003.77,0001.66,0001.36
2022-11-26 19:13:00,,0820.2,5.01,0.00,26.7,25.6,00.0,35.5,28.6,10.4,0000.0,0004.20,0001.76,0001.43
2022-11-26 19:14:00,,0820.3,4.98,0.00,26.7,25.6,00.0,35.5,28.6,10.2,0000.0,0004.43,0001.80,0001.47
2022-11-26 19:15:00,,0820.2,5.02,0.00,26.7,25.7,00.0,35.5,28.6,10.2,0000.0,0004.36,0001.78,0001.48
2022-11-26 19:16:00,,0820.2,4.99,0.00,26.7,25.7,00.0,35.5,28.6,10.2,0000.0,0004.32,0001.76,0001.48
2022-11-26 19:17:00,,0820.2,5.00,0.00,26.7,25.7,00.0,35.5,28.6,10.4,0000.0,0003.83,0001.79,0001.50
2022-11-26 19:18:00,,0820.2,5.01,0.00,26.7,25.7,00.0,35.5,28.6,10.5,0000.0,0003.90,0001.85,0001.53
2022-11-26 19:19:00,,0820.2,4.99,0.00,26.8,25.7,00.0,35.5,28.6,10.8,0000.0,0004.11,0001.90,0001.57
2022-11-26 19:20:00,,0820.2,5.01,0.00,26.8,25.8,00.0,35.6,28.6,10.9,0000.0,0004.19,0001.96,0001.61
2022-11-26 19:21:00,,0820.2,5.00,0.00,26.8,25.8,00.0,35.6,28.6,10.6,0000.0,0004.39,0002.03,0001.66
2022-11-26 19:22:00,,0820.2,4.99,0.00,26.8,25.8,00.0,35.6,28.7,10.5,0000.0,0005.14,0002.12,0001.71
2022-11-26 19:23:00,,0820.2,5.01,0.00,26.8,25.8,00.0,35.6,28.7,10.4,0000.0,0005.69,0002.19,0001.73
2022-11-26 19:24:00,,0820.2,4.99,0.00,26.8,25.9,00.0,35.6,28.7,10.4,0000.0,0006.27,0002.25,0001.76
2022-11-26 19:25:00,,0820.2,4.99,0.00,26.9,25.9,00.0,35.6,28.7,10.6,0000.0,0006.39,0002.35,0001.84
2022-11-26 19:26:00,,0820.2,5.02,0.00,26.9,25.9,00.0,35.7,28.7,10.7,0000.0,0006.64,0002.47,0001.93
2022-11-26 19:27:00,,0820.1,4.99,0.00,26.9,25.9,00.0,35.7,28.8,10.5,0000.0,0006.75,0002.59,0002.03
2022-11-26 19:28:00,,0820.1,5.01,0.00,26.9,25.9,00.0,35.7,28.8,10.7,0000.0,0006.77,0002.66,0002.12
2022-11-26 19:29:00,,0820.1,5.00,0.00,26.9,26.0,00.0,35.7,28.8,10.7,0000.0,0006.41,0002.72,0002.18
2022-11-26 19:30:00,,0820.0,4.99,0.00,27.0,26.0,00.0,35.7,28.8,10.5,0000.0,0006.16,0002.76,0002.26
2022-11-26 19:31:00,,0820.0,5.02,0.00,27.0,26.0,00.0,35.8,28.9,10.6,0000.0,0006.16,0002.80,0002.33
2022-11-26 19:32:00,,0820.0,4.99,0.00,27.0,26.1,00.0,35.8,28.9,10.5,0000.0,0006.23,0002.89,0002.39
2022-11-26 19:33:00,,0819.9,4.99,0.00,27.0,26.1,00.0,35.8,28.9,10.5,0000.0,0005.80,0002.93,0002.43
2022-11-26 19:34:00,,0819.9,5.01,0.00,27.1,26.1,00.0,35.8,28.9,10.6,0000.0,0005.25,0002.94,0002.46
2022-11-26 19:35:00,,0819.9,5.01,0.00,27.1,26.1,00.0,35.8,29.0,10.7,0000.0,0004.54,0002.95,0002.50
2022-11-26 19:36:00,,0819.9,4.99,0.00,27.1,26.2,00.0,35.8,29.0,10.6,0000.0,0004.24,0002.94,0002.51
2022-11-26 19:37:00,,0820.0,4.99,0.00,27.1,26.2,00.0,35.9,29.0,10.6,0000.0,0004.16,0002.96,0002.52
2022-11-26 19:38:00,,0820.0,5.01,0.00,27.1,26.2,00.0,35.9,29.1,10.6,0000.0,0004.12,0002.97,0002.53
2022-11-26 19:39:00,,0820.0,5.01,0.00,27.2,26.2,00.0,35.9,29.1,10.6,0000.0,0004.10,0002.98,0002.54
2022-11-26 19:40:00,,0820.0,4.99,0.00,27.2,26.2,00.0,35.9,29.1,10.5,0000.0,0004.09,0002.97,0002.54
2022-11-26 19:41:00,,0820.0,5.00,0.00,27.2,26.3,00.0,36.0,29.1,10.6,0000.0,0004.19,0002.99,0002.52
2022-11-26 19:42:00,,0819.9,5.02,0.00,27.2,26.3,00.0,36.0,29.1,10.6,0000.0,0004.42,0003.06,0002.51
2022-11-26 19:43:00,,0819.9,4.99,0.00,27.2,26.3,00.0,36.0,29.1,10.5,0000.0,0004.46,0003.04,0002.49
2022-11-26 19:44:00,,0819.9,5.00,0.00,27.3,26.3,00.0,36.0,29.1,10.2,0000.0,0004.48,0003.05,0002.50
2022-11-26 19:45:00,,0819.9,5.01,0.00,27.3,26.3,00.0,36.0,29.1,10.2,0000.0,0004.48,0003.03,0002.50
2022-11-26 19:46:00,,0819.9,4.99,0.00,27.3,26.3,00.0,36.0,29.1,10.2,0000.0,0004.52,0003.03,0002.50
2022-11-26 19:47:00,,0819.9,5.00,0.00,27.3,26.3,00.0,36.0,29.1,10.3,0000.0,0004.69,0003.04,0002.50
2022-11-26 19:48:00,,0819.9,4.98,0.00,27.3,26.3,00.0,36.1,29.1,10.2,0000.0,0005.40,0003.04,0002.50
2022-11-26 19:49:00,,0819.9,5.01,0.00,27.3,26.3,00.0,36.1,29.2,10.2,0000.0,0006.82,0003.09,0002.51
2022-11-26 19:50:00,,0820.0,5.01,0.00,27.3,26.4,00.0,36.1,29.2,10.2,0000.0,0007.01,0003.12,0002.50
2022-11-26 19:51:00,,0819.9,4.99,0.00,27.4,26.4,00.0,36.1,29.2,10.4,0000.0,0007.07,0003.12,0002.51
2022-11-26 19:52:00,,0819.9,4.99,0.00,27.4,26.4,00.0,36.1,29.3,10.4,0000.0,0007.05,0003.11,0002.52
2022-11-26 19:53:00,,0819.9,5.00,0.00,27.4,26.4,00.0,36.2,29.3,10.2,0000.0,0006.89,0003.06,0002.55
2022-11-26 19:54:00,,0819.9,5.01,0.00,27.4,26.5,00.0,36.2,29.3,10.3,0000.0,0006.83,0003.06,0002.57
2022-11-26 19:55:00,,0820.0,4.99,0.00,27.5,26.5,00.0,36.2,29.3,10.3,0000.0,0006.89,0003.05,0002.58
2022-11-26 19:56:00,,0819.9,4.99,0.00,27.5,26.5,00.0,36.2,29.4,10.2,0000.0,0007.17,0003.11,0002.60
2022-11-26 19:57:00,,0820.0,5.01,0.00,27.5,26.6,00.0,36.2,29.4,10.2,0000.0,0007.13,0003.11,0002.63
2022-11-26 19:58:00,,0820.0,5.00,0.00,27.5,26.6,00.0,36.3,29.4,10.2,0000.0,0007.09,0003.15,0002.67
2022-11-26 19:59:00,,0820.0,4.99,0.00,27.6,26.6,00.0,36.3,29.4,10.3,0000.0,0006.33,0003.15,0002.69
